Location: �perlecques
(50.8057°N, 2.1521°E)
Time: 23:29:21
(UTC+00:00)

STARLINK-1219 - Pass Details

Date: 09 April 2020
Orbit: 549 x 550 km, 53.0° (Epoch: 24 May)

Event Time Altitude Azimuth Distance (km) Brightness Sun altitude
Rises 19:47:11 0° 290° (WNW) 2,725 9.2 -11.1°
Reaches altitude 10° 19:49:34 10° 281° (W) 1,828 7.6 -11.4°
Maximum altitude 19:53:18 32° 217° (SW) 949 4.9 -11.9°
Enters shadow 19:56:30 13° 157° (SSE) 1,642 5.6 -12.4°
